Location: Oberwangen
(47.4286°N, 8.9679°E)
Time: 09:29:34
(UTC+00:00)

Cosmos 2333 Rocket - Pass Details

Date: 20 June 2021
Orbit: 841 x 861 km, 70.8° (Epoch: 04 August)

Event Time Altitude Azimuth Distance (km) Brightness Sun altitude
Rises 22:00:49 0° 232° (SW) 3,424 5.2 -16.6°
Reaches altitude 10° 22:03:27 10° 241° (WSW) 2,489 4.5 -16.7°
Maximum altitude 22:08:44 37° 308° (NW) 1,303 3.7 -17.0°
Drops below altitude 10° 22:14:02 10° 15° (NNE) 2,490 5.5 -17.3°
Sets 22:16:41 0° 24° (NNE) 3,427 6.2 -17.4°
